Retour au catalogue

STARLINK-11389

ActifCommunicationsVLEO
NORAD 62091·PAYLOAD·🇺🇸 United States

Lancé Nov 25, 2024 depuis Cape Canaveral Space Force Station

Loading…

Prochains Passages (prochaines 24 heures)

TLE

FraisSource: CelesTrak SupGP

Époque: Sep 14, 2026, 20:42 UTC

1 62091C 24220D   26257.86298611 -.00004185  00000+0 -32482-4 0  2570
2 62091  43.0003 342.9495 0001658 284.1646  72.7642 15.70856288    16

Suivez STARLINK-11389 en temps réel avec AllMySat

Download on the App Store